978 visiteurs
Prévisions de votre ville :
Vigilance : 12 départements Mise à jour le 26/08/2019 à 06:05 - Voir la carte

Paris Roissy CDG (95380) le 26/08/2019 à 06:30 Choisir station

18°C 68 % N Vit. moyenne 11 kmh/h

Relevés météo quotidiens pour la station de :

UTC
S: Synop
M: Metar
Loc T°C
(°C)
Td
(°C)
HR
(%)
Vis
(km)
Néb
(octa)
Vent
(km/h)
Pression
(mb)
Précipitations
(mm)
Temps
              MOY
10 min
DIR RAF 1h MESURE VAR SUR 3h    
S 00 h 02h 23.1 19.9 82 15 - 4 7 1019.9 +0.8/3h 0.0/6h - 0.0/3h -
S 01 h 03h 22.8 18.3 76 25 - 15 24 1019.9 +0.4/3h 0.0/1h -
S 02 h 04h 22.3 17.2 73 21 7/8 13 22 1020.0 +0.1/3h 0.0/1h
S 03 h 05h 21.1 17.3 79 50 - 11 20 1020.1 +0.1/3h 0.0/1h -
S 04 h 06h 20.7 17.5 82 35 7/8 13 22 1020.5 +0.4/3h 0.0/1h
S 05 h 07h 20.2 18.3 89 4.2 8/8 6 13 1020.2 +0.1/3h 0.8/1h
S 06 h 08h 20.3 18.4 89 26 7/8 7 22 1021.1 +0.9/3h 1.0/12h - 1.0/3h - 1.0/24h
S 07 h 09h 20.8 18.6 87 29 7/8 9 15 1021.5 +1.0/3h 0.0/1h
S 08 h 10h 22.4 18.2 77 35 8/8 9 17 1021.4 +1.3/3h 0.0/1h
S 09 h 11h 23.8 18.2 71 26 8/8 4 7 1021.6 +0.7/3h 0.0/3h
S 10 h 12h 25.5 18.9 67 18 6/8 4 11 1021.5 +0.3/3h 0.0/1h
S 11 h 13h 27.4 18.9 60 20 - 7 22 1021.2 +0.1/3h 0.0/1h -
S 12 h 14h 29.2 18.9 54 20 - 6 20 1020.7 -0.6/3h 0.0/6h - 0.0/3h -
S 13 h 15h 30.7 19.1 50 30 - 6 20 1020.2 -1.0/3h 0.0/1h -
S 14 h 16h 31.5 18.5 46 23 - 9 20 1019.7 -1.2/3h 0.0/1h -
S 15 h 17h 31.8 18.4 45 50 - 6 11 1019.4 -1.1/3h 0.0/3h -
S 16 h 18h 32.4 18.6 44 14 - 2 9 1018.9 -1.2/3h 0.0/1h -
S 17 h 19h 31.9 18.5 45 23 - 4 19 1018.9 -0.8/3h 0.0/1h -
S 18 h 20h 31.2 18.9 48 21 - 9 17 1019.2 -0.2/3h 0.0/12h - 0.0/3h -
S 19 h 21h 30.3 19.0 51 24 - 6 9 1019.7 +0.7/3h 0.0/1h -
S 20 h 22h 29.2 18.9 54 23 - 6 11 1020.2 +1.1/3h 0.0/1h -
S 21 h 23h 28.0 19.0 58 22 - 6 7 1021.1 +1.7/3h 0.0/3h -
S 22 h 00h 26.7 18.6 61 26 - 9 19 1021.7 +1.8/3h 0.0/1h -
S 23 h 01h 26.2 18.1 61 35 - 7 13 1022.0 +1.6/3h 0.0/1h -
evolution des temperatures
cumul des precipitations
vent moyen et rafales
pression atmospherique

Un tiret (-) signifie que les données ne sont pas disponibles.

Passez la souris sur les pictos temps pour avoir plus de précisions. Passez les flèches sur l'icône de la direction du vent pour voir la direction précise en degrés.

Les données de l'heure en cours sont disponibles à partir de H+15 minutes.


S signifie station Synop, plus complète qu'une station Metar (M). Il y a +1h de différence entre l'heure UTC et l'heure légale en hiver et +2h en été.

Td est la mesure du point de rosée.

HR est l'humidité relative/p>

Vis est la visibilité

Néb est la nébulosité du ciel (couverture nuageuse) exprimée en octas (de 0/8 à 8/8).

Vent moy 10 min donne le vent moyen sur les 10 minutes qui précèdent le relevé.

Vent raf 1h donne la rafale maximale mesurée dans l'heure qui précède le relevé.


Les données les plus anciennes remontent à avril 2014.

Les données présentées sur cette page proviennent des stations météo officielles. Les relevés sont effectués aux normes en vigueur (anémomètre à 10m de haut, thermomètre sous abri normalisé à 2m du sol...)

Météo 60 décline toute responsabilité en cas d'absence de données, d'erreurs, de mauvaise utilisation ou interprétation et n'est pas habilité à fournir des certificats intempéries.